EC1ABR Weather Reports


Display with metric or nautical units.
time (UTC)temp
F
wind
direction
speed
MPH
gust
MPH
rain 1hr
in
rain 24hr
in
rain mn
in
humidity
%
barometer
mb
20260507004503 46 0 0.0 0.0 0.00 0.00 0.00 90 1009.5
20260507003603 46 0 0.0 0.0 0.00 0.00 0.00 90 1009.8
20260507002703 46 0 0.0 0.0 0.00 0.00 0.00 90 1009.8
20260507001803 46 0 0.0 0.0 0.00 0.00 0.00 90 1009.8
20260507001116 46 0 0.0 0.0 0.00 0.00 0.00 90 1010.0
20260507000004 46 0 0.0 0.0 0.00 0.00 0.00 90 1010.2
20260506235403 47 0 0.0 0.0 0.00 0.00 0.00 90 1010.2
20260506234503 47 0 0.0 0.0 0.00 0.00 0.00 89 1010.2
20260506233603 47 0 0.0 0.0 0.00 0.00 0.00 89 1010.4
20260506232917 47 0 0.0 0.0 0.00 0.00 0.00 89 1010.7
20260506232014 48 0 0.0 0.0 0.00 0.00 0.00 89 1010.7
20260506230903 48 0 0.0 0.0 0.00 0.00 0.00 88 1010.6
20260506230008 48 0 0.0 0.0 0.00 0.00 0.00 88 1010.8
20260506225403 48 0 0.0 0.0 0.00 0.00 0.00 87 1010.8
20260506224713 48 0 0.0 0.0 0.00 0.00 0.00 87 1010.9
20260506223603 49 0 0.0 0.0 0.00 0.00 0.00 86 1011.2
20260506222703 49 0 0.0 0.0 0.00 0.00 0.00 85 1011.5
20260506221803 49 0 0.0 0.0 0.00 0.00 0.00 85 1011.6
20260506220903 49 0 0.0 0.0 0.00 0.00 0.00 84 1011.6
20260506220003 50 0 0.0 0.0 0.00 0.00 0.00 84 1011.7
20260506215616 50 0 0.0 0.0 0.00 0.00 0.00 83 1011.9
20260506214503 51 0 0.0 0.0 0.00 0.00 0.00 83 1011.8
20260506213604 51 0 0.0 0.0 0.00 0.00 0.00 82 1012.0
20260506212704 52 0 0.0 0.0 0.00 0.00 0.00 82 1012.2
20260506211803 52 0 0.0 0.0 0.00 0.00 0.00 82 1012.0
20260506210903 52 0 0.0 0.0 0.00 0.00 0.00 81 1012.3
20260506210215 52 0 0.0 0.0 0.00 0.00 0.00 81 1012.1
20260506205617 53 0 0.0 0.0 0.00 0.00 0.00 81 1012.0
20260506204504 53 0 0.0 0.0 0.00 0.00 0.00 80 1012.0
20260506203816 53 0 0.0 0.0 0.00 0.00 0.00 80 1012.1
20260506202703 54 0 0.0 0.0 0.00 0.00 0.00 78 1012.2
20260506201803 54 0 0.0 0.0 0.00 0.00 0.00 77 1011.9
20260506200903 55 0 0.0 0.0 0.00 0.00 0.00 73 1011.7
20260506200003 55 0 0.0 0.0 0.00 0.00 0.00 72 1011.7
20260506195404 56 0 0.0 0.0 0.00 0.00 0.00 72 1011.7
20260506194504 56 0 0.0 0.0 0.00 0.00 0.00 71 1011.5
20260506193603 57 0 0.0 0.0 0.00 0.00 0.00 71 1011.3
20260506192703 57 0 0.0 0.0 0.00 0.00 0.00 70 1011.4
20260506191803 57 0 0.0 0.0 0.00 0.00 0.00 70 1011.2
20260506190903 58 0 0.0 0.0 0.00 0.00 0.00 69 1011.2
20260506190004 58 0 0.0 0.0 0.00 0.00 0.00 67 1011.2
20260506185404 58 0 0.0 0.0 0.00 0.00 0.00 66 1011.2
20260506184503 59 0 0.0 0.0 0.00 0.00 0.00 65 1011.4
20260506183604 59 0 0.0 0.0 0.00 0.00 0.00 65 1011.6
20260506182703 59 0 0.0 0.0 0.00 0.00 0.00 65 1011.5
20260506182017 59 0 0.0 0.0 0.00 0.00 0.00 66 1011.5
20260506180903 60 0 0.0 0.0 0.00 0.00 0.00 66 1011.5
20260506180005 60 0 0.0 0.0 0.00 0.00 0.00 65 1011.6
20260506175403 60 0 0.0 0.0 0.00 0.00 0.00 65 1011.6
20260506174503 60 0 0.0 0.0 0.00 0.00 0.00 64 1011.6
20260506173603 60 0 0.0 0.0 0.00 0.00 0.00 64 1012.0
20260506172703 60 0 0.0 0.0 0.00 0.00 0.00 63 1012.0
20260506171804 61 0 0.0 0.0 0.00 0.00 0.00 62 1012.2
20260506170903 61 0 0.0 0.0 0.00 0.00 0.00 62 1012.5
20260506170004 61 0 0.0 0.0 0.00 0.00 0.00 61 1012.3
20260506165403 62 0 0.0 0.0 0.00 0.00 0.00 61 1012.3
20260506164503 62 0 0.0 0.0 0.00 0.00 0.00 61 1012.0
20260506163603 62 0 0.0 0.0 0.00 0.00 0.00 61 1012.0
20260506162703 62 0 0.0 0.0 0.00 0.00 0.00 61 1011.7
20260506161804 62 0 0.0 0.0 0.00 0.00 0.00 63 1011.6
20260506160903 62 0 0.0 0.0 0.00 0.00 0.00 62 1011.5
20260506160004 62 0 0.0 0.0 0.00 0.00 0.00 63 1011.6
20260506155404 62 0 0.0 0.0 0.00 0.00 0.00 63 1011.6
20260506154503 62 0 0.0 0.0 0.00 0.00 0.00 63 1011.6
20260506153603 62 0 0.0 0.0 0.00 0.00 0.00 63 1011.8
20260506152703 62 0 0.0 0.0 0.00 0.00 0.00 63 1012.0
20260506151803 62 0 0.0 0.0 0.00 0.00 0.00 63 1012.0
20260506150903 62 0 0.0 0.0 0.00 0.00 0.00 63 1012.0
20260506150004 62 0 0.0 0.0 0.00 0.00 0.00 63 1011.9
20260506145403 62 0 0.0 0.0 0.00 0.00 0.00 63 1011.9
20260506144713 62 0 0.0 0.0 0.00 0.00 0.00 62 1011.9
20260506143603 61 0 0.0 0.0 0.00 0.00 0.00 63 1011.7
20260506142704 61 0 0.0 0.0 0.00 0.00 0.00 64 1011.7
20260506141804 61 0 0.0 0.0 0.00 0.00 0.00 63 1011.6
20260506140903 61 0 0.0 0.0 0.00 0.00 0.00 63 1011.7
20260506140004 61 0 0.0 0.0 0.00 0.00 0.00 62 1011.5
20260506135403 60 0 0.0 0.0 0.00 0.00 0.00 62 1011.8
20260506134713 60 0 0.0 0.0 0.00 0.00 0.00 63 1011.8
20260506133603 60 0 0.0 0.0 0.00 0.00 0.00 63 1011.9
20260506132913 60 0 0.0 0.0 0.00 0.00 0.00 64 1011.9
20260506131803 60 0 0.0 0.0 0.00 0.00 0.00 68 1011.6
20260506130903 59 0 0.0 0.0 0.00 0.00 0.00 69 1011.5
20260506130004 59 0 0.0 0.0 0.00 0.00 0.00 70 1011.6
20260506125404 59 0 0.0 0.0 0.00 0.00 0.00 71 1011.5
20260506124504 59 0 0.0 0.0 0.00 0.00 0.00 72 1011.2
20260506123603 58 0 0.0 0.0 0.00 0.00 0.00 72 1010.9
20260506122703 58 0 0.0 0.0 0.00 0.00 0.00 73 1011.0
20260506121803 58 0 0.0 0.0 0.00 0.00 0.00 74 1011.1
20260506120903 57 0 0.0 0.0 0.00 0.00 0.00 75 1010.9
20260506120004 57 0 0.0 0.0 0.00 0.00 0.00 76 1011.0
20260506115403 57 0 0.0 0.0 0.00 0.00 0.00 75 1011.2
20260506114503 57 0 0.0 0.0 0.00 0.00 0.00 78 1011.3
20260506113817 57 0 0.0 0.0 0.00 0.00 0.00 80 1011.4
20260506112703 56 0 0.0 0.0 0.00 0.00 0.00 80 1011.5
20260506112017 56 0 0.0 0.0 0.00 0.00 0.00 80 1011.6
20260506110904 56 0 0.0 0.0 0.00 0.00 0.00 78 1011.7
20260506110216 57 0 0.0 0.0 0.00 0.00 0.00 77 1011.9
20260506105403 57 0 0.0 0.0 0.00 0.00 0.00 76 1011.8
20260506104503 58 0 0.0 0.0 0.00 0.00 0.00 74 1011.8
20260506103603 58 0 0.0 0.0 0.00 0.00 0.00 75 1012.1
20260506102703 58 0 0.0 0.0 0.00 0.00 0.00 76 1011.9
20260506102017 58 0 0.0 0.0 0.00 0.00 0.00 80 1012.0
20260506100903 57 0 0.0 0.0 0.00 0.00 0.00 82 1011.9
20260506100004 56 0 0.0 0.0 0.00 0.00 0.00 83 1011.9
20260506095403 56 0 0.0 0.0 0.00 0.00 0.00 84 1011.9
20260506094503 56 0 0.0 0.0 0.00 0.00 0.00 85 1012.0
20260506093603 55 0 0.0 0.0 0.00 0.00 0.00 86 1012.0
20260506092703 55 0 0.0 0.0 0.00 0.00 0.00 87 1011.9
20260506091804 54 0 0.0 0.0 0.00 0.00 0.00 91 1012.1
20260506090903 54 0 0.0 0.0 0.00 0.00 0.00 91 1011.9
20260506090004 54 0 0.0 0.0 0.00 0.00 0.00 91 1012.2
20260506085614 53 0 0.0 0.0 0.00 0.00 0.00 92 1012.1
20260506084717 53 0 0.0 0.0 0.00 0.00 0.00 93 1012.2
20260506083603 53 0 0.0 0.0 0.00 0.00 0.00 94 1012.1
20260506082703 53 0 0.0 0.0 0.00 0.00 0.00 95 1012.1
20260506081803 52 0 0.0 0.0 0.00 0.00 0.00 95 1012.3
20260506081116 52 0 0.0 0.0 0.00 0.00 0.00 96 1012.2
20260506072917 51 0 0.0 0.0 0.00 0.00 0.00 97 1012.5
20260506071803 50 0 0.0 0.0 0.00 0.00 0.00 98 1012.4
20260506070903 50 0 0.0 0.0 0.00 0.00 0.00 98 1012.3
20260506062015 47 0 0.0 0.0 0.00 0.00 0.00 96 1012.0
20260506061117 47 0 0.0 0.0 0.00 0.00 0.00 96 1012.0
20260506050903 47 0 0.0 0.0 0.00 0.00 0.00 95 1011.9
20260506050215 47 0 0.0 0.0 0.00 0.00 0.00 95 1012.1
20260506044503 47 0 0.0 0.0 0.00 0.00 0.00 95 1012.0
20260506043816 47 0 0.0 0.0 0.00 0.00 0.00 95 1012.0
20260506042703 47 0 0.0 0.0 0.00 0.00 0.00 95 1012.1
20260506042016 47 0 0.0 0.0 0.00 0.00 0.00 95 1012.2
20260506041113 47 0 0.0 0.0 0.00 0.00 0.00 95 1012.3
20260506040004 47 0 0.0 0.0 0.00 0.00 0.00 95 1012.3
20260506035403 48 0 0.0 0.0 0.00 0.00 0.00 95 1012.4
20260506034503 48 0 0.0 0.0 0.00 0.00 0.00 95 1012.4
20260506033603 48 0 0.0 0.0 0.00 0.00 0.00 95 1012.6
20260506032703 49 0 0.0 0.0 0.00 0.00 0.00 95 1012.4
20260506031804 49 0 0.0 0.0 0.00 0.00 0.00 95 1012.6
20260506030903 49 0 0.0 0.0 0.00 0.00 0.00 95 1012.8
20260506030004 49 0 0.0 0.0 0.00 0.00 0.00 95 1012.7
20260506025403 49 0 0.0 0.0 0.00 0.00 0.00 95 1012.8
20260506024503 49 0 0.0 0.0 0.00 0.00 0.00 95 1012.8
20260506023603 49 0 0.0 0.0 0.00 0.00 0.00 95 1012.7
20260506022915 49 0 0.0 0.0 0.00 0.00 0.00 95 1013.0
20260506021803 49 0 0.0 0.0 0.00 0.00 0.00 95 1013.0
20260506020903 49 0 0.0 0.0 0.00 0.00 0.00 94 1013.0
20260506020004 49 0 0.0 0.0 0.00 0.00 0.00 94 1013.2
20260506015614 49 0 0.0 0.0 0.00 0.00 0.00 94 1013.2
20260506014716 49 0 0.0 0.0 0.00 0.00 0.00 94 1013.0
20260506013603 49 0 0.0 0.0 0.00 0.00 0.00 94 1013.1
20260506012704 49 0 0.0 0.0 0.00 0.00 0.00 93 1013.2
20260506011803 49 0 0.0 0.0 0.00 0.00 0.00 93 1013.5
20260506010903 49 0 0.0 0.0 0.00 0.00 0.00 93 1013.6
20260506010003 49 0 0.0 0.0 0.00 0.00 0.00 93 1013.9
20260506005403 49 0 0.0 0.0 0.00 0.00 0.00 92 1014.0